This is the latest recevied weather packets stored in our database for station/object W4ZHA. If no packets are shown the sender has not sent any weather packets the latest 10 day(s).
| Time | Temp. | Humidity | Pressure | Rain* | Wind** | Luminosity | Snow |
|---|---|---|---|---|---|---|---|
| 1787965849 | 25° C | 66% | 1016.5 hPa | 0 mm | - | 0 W/m² | - |
| 1787965544 | 26.11° C | 66% | 1016.8 hPa | 0 mm | - | 0 W/m² | - |
| 1787965239 | 26.11° C | 65% | 1016.8 hPa | 0 mm | - | 0 W/m² | - |
| 1787964933 | 26.11° C | 65% | 1016.5 hPa | 0 mm | - | 0 W/m² | - |
| 1787964628 | 26.11° C | 65% | 1016.5 hPa | 0 mm | - | 0 W/m² | - |
| 1787964322 | 26.11° C | 64% | 1016.8 hPa | 0 mm | - | 0 W/m² | - |
| 1787964022 | 26.11° C | 64% | 1016.5 hPa | 0 mm | - | 0 W/m² | - |
| 1787963721 | 26.67° C | 64% | 1016.5 hPa | 0 mm | - | 0 W/m² | - |
| 1787963417 | 27.22° C | 63% | 1016.5 hPa | 0 mm | - | 0 W/m² | - |
| 1787963112 | 27.22° C | 63% | 1016.1 hPa | 0 mm | - | 0 W/m² | - |
| 1787962811 | 27.78° C | 61% | 1016.5 hPa | 0 mm | - | 0 W/m² | - |
| 1787962510 | 27.78° C | 61% | 1016.5 hPa | 0 mm | - | 0 W/m² | - |
| 1787962209 | 28.33° C | 61% | 1016.1 hPa | 0 mm | - | 0 W/m² | - |
| 1787961904 | 28.33° C | 60% | 1016.1 hPa | 0 mm | - | 1 W/m² | - |
| 1787961602 | 28.33° C | 60% | 1016.8 hPa | 0 mm | - | 3 W/m² | - |
| 1787961296 | 27.78° C | 61% | 1016.5 hPa | 0 mm | - | 6 W/m² | - |
| 1787960991 | 28.33° C | 62% | 1016.1 hPa | 0 mm | - | 10 W/m² | - |
| 1787960686 | 28.33° C | 62% | 1016.1 hPa | 0 mm | - | 14 W/m² | - |
| 1787960385 | 28.33° C | 63% | 1016.5 hPa | 0 mm | - | 18 W/m² | - |
| 1787960079 | 28.89° C | 63% | 1016.1 hPa | 0 mm | - | 26 W/m² | - |
| 1787959774 | 29.44° C | 60% | 1016.1 hPa | 0 mm | - | 31 W/m² | - |
| 1787959470 | 30° C | 59% | 1016.1 hPa | 0 mm | - | 37 W/m² | - |
| 1787959165 | 30° C | 57% | 1016.1 hPa | 0 mm | - | 43 W/m² | - |
| 1787958860 | 30.56° C | 57% | 1016.1 hPa | 0 mm | - | 42 W/m² | - |
| 1787958555 | 30.56° C | 56% | 1016.1 hPa | 0 mm | - | 60 W/m² | - |
* Rain latest hour (hover to see other rain measurements)
** Current wind speed in m/s (hover to see current wind gust speed)